Time,TemperatureF,DewpointF,PressureIn,WindDirection,WindDirectionDegrees,WindSpeedMPH,WindSpeedGustMPH,Humidity,HourlyPrecipIn,Conditions,Clouds,dailyrainin,SoftwareType,DateUTC
2013-02-15 00:01:00,16.0,14.0,-100.00,SW,215,17.0,23.0,91,0.00,,,-99.99,,2013-02-15 07:01:00,
2013-02-15 00:11:00,16.0,13.0,-100.00,SSW,213,20.0,23.0,89,0.00,,,-99.99,,2013-02-15 07:11:00,
2013-02-15 00:21:00,16.0,13.0,-100.00,SSW,213,19.0,24.0,87,0.00,,,-99.99,,2013-02-15 07:21:00,
2013-02-15 00:31:00,16.0,12.0,-100.00,SW,215,19.0,24.0,84,0.00,,,-99.99,,2013-02-15 07:31:00,
2013-02-15 00:41:00,15.0,11.0,-100.00,SW,222,18.0,24.0,85,0.00,,,-99.99,,2013-02-15 07:41:00,
2013-02-15 00:52:00,16.0,12.0,-100.00,SW,226,19.0,23.0,84,0.00,,,-99.99,,2013-02-15 07:52:00,
2013-02-15 01:01:00,16.0,12.0,-100.00,SW,232,18.0,22.0,83,0.00,,,-99.99,,2013-02-15 08:01:00,
2013-02-15 01:11:00,17.0,12.0,-100.00,WSW,237,19.0,29.0,81,0.00,,,-99.99,,2013-02-15 08:11:00,
2013-02-15 01:21:00,17.0,12.0,-100.00,SW,233,18.0,22.0,83,0.00,,,-99.99,,2013-02-15 08:21:00,
2013-02-15 01:31:00,16.0,12.0,-100.00,SW,229,16.0,21.0,84,0.00,,,-99.99,,2013-02-15 08:31:00,
2013-02-15 01:41:00,16.0,12.0,-100.00,SW,227,17.0,22.0,83,0.00,,,-99.99,,2013-02-15 08:41:00,
2013-02-15 01:52:00,16.0,12.0,-100.00,SW,223,18.0,26.0,83,0.00,,,-99.99,,2013-02-15 08:52:00,
2013-02-15 02:01:00,16.0,12.0,-100.00,SW,230,18.0,27.0,82,0.00,,,-99.99,,2013-02-15 09:01:00,
2013-02-15 02:12:00,16.0,12.0,-100.00,SW,222,21.0,27.0,84,0.00,,,-99.99,,2013-02-15 09:12:00,
2013-02-15 02:21:00,16.0,11.0,-100.00,SW,220,24.0,30.0,82,0.00,,,-99.99,,2013-02-15 09:21:00,
2013-02-15 02:32:00,16.0,12.0,-100.00,SW,222,24.0,32.0,83,0.00,,,-99.99,,2013-02-15 09:32:00,
2013-02-15 02:41:00,16.0,12.0,-100.00,SW,217,24.0,30.0,84,0.00,,,-99.99,,2013-02-15 09:41:00,
2013-02-15 02:51:00,16.0,11.0,-100.00,SW,219,24.0,30.0,83,0.00,,,-99.99,,2013-02-15 09:51:00,
2013-02-15 03:01:00,16.0,11.0,-100.00,SW,220,23.0,30.0,83,0.00,,,-99.99,,2013-02-15 10:01:00,
2013-02-15 03:11:00,16.0,11.0,-100.00,SW,223,22.0,29.0,83,0.00,,,-99.99,,2013-02-15 10:11:00,
2013-02-15 03:21:00,16.0,11.0,-100.00,SW,224,22.0,31.0,83,0.00,,,-99.99,,2013-02-15 10:21:00,
2013-02-15 03:31:00,15.0,11.0,-100.00,SW,226,23.0,29.0,84,0.00,,,-99.99,,2013-02-15 10:31:00,
2013-02-15 03:41:00,15.0,12.0,-100.00,SW,226,21.0,29.0,86,0.00,,,-99.99,,2013-02-15 10:41:00,
2013-02-15 03:51:00,15.0,12.0,-100.00,SW,226,22.0,27.0,87,0.00,,,-99.99,,2013-02-15 10:51:00,
2013-02-15 04:01:00,15.0,13.0,-100.00,SW,229,21.0,27.0,90,0.01,,,-99.99,,2013-02-15 11:01:00,
2013-02-15 04:11:00,15.0,13.0,-100.00,SW,232,21.0,27.0,91,0.01,,,-99.99,,2013-02-15 11:11:00,
2013-02-15 04:22:00,15.0,13.0,-100.00,SW,233,20.0,26.0,90,0.01,,,-99.99,,2013-02-15 11:22:00,
2013-02-15 04:32:00,15.0,12.0,-100.00,SW,233,21.0,27.0,91,0.01,,,-99.99,,2013-02-15 11:32:00,
2013-02-15 04:42:00,15.0,13.0,-100.00,SW,232,20.0,26.0,90,0.00,,,-99.99,,2013-02-15 11:42:00,
2013-02-15 04:52:00,15.0,12.0,-100.00,SW,226,21.0,25.0,90,0.00,,,-99.99,,2013-02-15 11:52:00,
2013-02-15 05:02:00,15.0,12.0,-100.00,SW,226,19.0,23.0,91,0.00,,,-99.99,,2013-02-15 12:02:00,
2013-02-15 05:11:00,15.0,12.0,-100.00,SW,223,19.0,23.0,90,0.00,,,-99.99,,2013-02-15 12:11:00,
2013-02-15 05:21:00,15.0,12.0,-100.00,SW,220,21.0,24.0,89,0.00,,,-99.99,,2013-02-15 12:21:00,
2013-02-15 05:32:00,15.0,11.0,-100.00,SW,220,21.0,26.0,87,0.00,,,-99.99,,2013-02-15 12:32:00,
2013-02-15 05:42:00,15.0,11.0,-100.00,SW,219,19.0,24.0,85,0.00,,,-99.99,,2013-02-15 12:42:00,
2013-02-15 05:52:00,15.0,11.0,-100.00,SW,224,19.0,22.0,83,0.00,,,-99.99,,2013-02-15 12:52:00,
2013-02-15 06:02:00,15.0,11.0,-100.00,SW,227,19.0,24.0,83,0.00,,,-99.99,,2013-02-15 13:02:00,
2013-02-15 06:11:00,15.0,12.0,-100.00,SW,233,19.0,24.0,86,0.00,,,-99.99,,2013-02-15 13:11:00,
2013-02-15 06:21:00,15.0,13.0,-100.00,SW,234,19.0,25.0,90,0.00,,,-99.99,,2013-02-15 13:21:00,
2013-02-15 06:32:00,15.0,13.0,-100.00,WSW,241,19.0,26.0,91,0.00,,,-99.99,,2013-02-15 13:32:00,
2013-02-15 06:41:00,14.0,13.0,-100.00,WSW,241,18.0,22.0,93,0.00,,,-99.99,,2013-02-15 13:41:00,
2013-02-15 06:52:00,14.0,13.0,-100.00,WSW,241,16.0,21.0,94,0.00,,,-99.99,,2013-02-15 13:52:00,
2013-02-15 07:01:00,14.0,12.0,-100.00,WSW,246,15.0,20.0,94,0.00,,,-99.99,,2013-02-15 14:01:00,
2013-02-15 07:11:00,14.0,12.0,-100.00,WSW,241,16.0,20.0,93,0.00,,,-99.99,,2013-02-15 14:11:00,
2013-02-15 07:21:00,14.0,12.0,-100.00,WSW,237,16.0,20.0,93,0.00,,,-99.99,,2013-02-15 14:21:00,
2013-02-15 07:32:00,14.0,12.0,-100.00,SW,230,16.0,20.0,92,0.00,,,-99.99,,2013-02-15 14:32:00,
2013-02-15 07:41:00,15.0,12.0,-100.00,SW,224,17.0,22.0,91,0.00,,,-99.99,,2013-02-15 14:41:00,
2013-02-15 07:52:00,15.0,12.0,-100.00,SW,220,19.0,23.0,89,0.00,,,-99.99,,2013-02-15 14:52:00,
2013-02-15 08:01:00,15.0,11.0,-100.00,SW,220,19.0,24.0,85,0.00,,,-99.99,,2013-02-15 15:01:00,
2013-02-15 08:11:00,15.0,10.0,-100.00,SW,230,21.0,30.0,80,0.00,,,-99.99,,2013-02-15 15:11:00,
2013-02-15 08:21:00,16.0,9.0,-100.00,SW,230,20.0,27.0,76,0.00,,,-99.99,,2013-02-15 15:21:00,
2013-02-15 08:32:00,16.0,10.0,-100.00,SW,227,20.0,24.0,79,0.00,,,-99.99,,2013-02-15 15:32:00,
2013-02-15 08:42:00,16.0,10.0,-100.00,SW,229,21.0,26.0,76,0.00,,,-99.99,,2013-02-15 15:42:00,
2013-02-15 08:51:00,16.0,10.0,-100.00,SW,234,22.0,28.0,78,0.00,,,-99.99,,2013-02-15 15:51:00,
2013-02-15 09:01:00,16.0,11.0,-100.00,WSW,244,22.0,27.0,79,0.00,,,-99.99,,2013-02-15 16:01:00,
2013-02-15 09:11:00,16.0,11.0,-100.00,WSW,248,24.0,29.0,80,0.00,,,-99.99,,2013-02-15 16:11:00,
2013-02-15 09:22:00,15.0,11.0,-100.00,WSW,244,23.0,28.0,81,0.00,,,-99.99,,2013-02-15 16:22:00,
2013-02-15 09:32:00,16.0,11.0,-100.00,WSW,246,23.0,29.0,80,0.00,,,-99.99,,2013-02-15 16:32:00,
2013-02-15 09:42:00,16.0,10.0,-100.00,WSW,241,22.0,30.0,79,0.00,,,-99.99,,2013-02-15 16:42:00,
2013-02-15 09:51:00,16.0,11.0,-100.00,WSW,248,23.0,31.0,82,0.00,,,-99.99,,2013-02-15 16:51:00,
2013-02-15 10:01:00,16.0,11.0,-100.00,WSW,253,24.0,30.0,80,0.00,,,-99.99,,2013-02-15 17:01:00,
2013-02-15 10:11:00,16.0,11.0,-100.00,WSW,253,25.0,32.0,79,0.00,,,-99.99,,2013-02-15 17:11:00,
2013-02-15 10:21:00,16.0,12.0,-100.00,WSW,256,27.0,33.0,82,0.00,,,-99.99,,2013-02-15 17:21:00,
2013-02-15 10:32:00,17.0,12.0,-100.00,WSW,256,27.0,32.0,81,0.00,,,-99.99,,2013-02-15 17:32:00,
2013-02-15 10:52:00,17.0,11.0,-100.00,WSW,257,26.0,32.0,78,0.00,,,-99.99,,2013-02-15 17:52:00,
2013-02-15 11:01:00,17.0,11.0,-100.00,WSW,256,28.0,34.0,78,0.00,,,-99.99,,2013-02-15 18:01:00,
2013-02-15 11:11:00,17.0,11.0,-100.00,WSW,257,28.0,34.0,76,0.00,,,-99.99,,2013-02-15 18:11:00,
2013-02-15 11:21:00,17.0,11.0,-100.00,WSW,257,26.0,33.0,76,0.00,,,-99.99,,2013-02-15 18:21:00,
2013-02-15 11:32:00,17.0,11.0,-100.00,WSW,257,26.0,31.0,75,0.00,,,-99.99,,2013-02-15 18:32:00,
2013-02-15 11:41:00,18.0,12.0,-100.00,WSW,258,26.0,32.0,78,0.00,,,-99.99,,2013-02-15 18:41:00,
2013-02-15 11:52:00,18.0,11.0,-100.00,West,261,25.0,30.0,75,0.00,,,-99.99,,2013-02-15 18:52:00,
2013-02-15 12:01:00,18.0,12.0,-100.00,West,265,26.0,32.0,76,0.00,,,-99.99,,2013-02-15 19:01:00,
2013-02-15 12:11:00,18.0,11.0,-100.00,West,274,27.0,34.0,75,0.00,,,-99.99,,2013-02-15 19:11:00,
2013-02-15 12:22:00,18.0,12.0,-100.00,West,281,29.0,37.0,74,0.00,,,-99.99,,2013-02-15 19:22:00,
2013-02-15 12:32:00,19.0,12.0,-100.00,West,277,30.0,37.0,76,0.00,,,-99.99,,2013-02-15 19:32:00,
2013-02-15 12:41:00,19.0,12.0,-100.00,West,272,30.0,36.0,74,0.00,,,-99.99,,2013-02-15 19:41:00,
2013-02-15 12:51:00,19.0,13.0,-100.00,West,268,30.0,35.0,77,0.00,,,-99.99,,2013-02-15 19:51:00,
2013-02-15 13:01:00,19.0,13.0,-100.00,West,270,31.0,38.0,78,0.00,,,-99.99,,2013-02-15 20:01:00,
2013-02-15 13:11:00,19.0,13.0,-100.00,West,270,29.0,35.0,76,0.00,,,-99.99,,2013-02-15 20:11:00,
2013-02-15 13:21:00,20.0,13.0,-100.00,West,268,27.0,34.0,76,0.00,,,-99.99,,2013-02-15 20:21:00,
2013-02-15 13:32:00,20.0,12.0,-100.00,West,267,27.0,35.0,71,0.00,,,-99.99,,2013-02-15 20:32:00,
2013-02-15 13:42:00,20.0,12.0,-100.00,West,267,30.0,37.0,70,0.00,,,-99.99,,2013-02-15 20:42:00,
2013-02-15 13:52:00,20.0,13.0,-100.00,West,261,30.0,35.0,74,0.00,,,-99.99,,2013-02-15 20:52:00,
2013-02-15 14:01:00,20.0,12.0,-100.00,West,260,30.0,39.0,73,0.00,,,-99.99,,2013-02-15 21:01:00,
2013-02-15 14:11:00,20.0,14.0,-100.00,West,260,30.0,39.0,76,0.00,,,-99.99,,2013-02-15 21:11:00,
2013-02-15 14:21:00,20.0,12.0,-100.00,West,260,29.0,34.0,72,0.00,,,-99.99,,2013-02-15 21:21:00,
2013-02-15 14:31:00,19.0,15.0,-100.00,WSW,253,24.0,31.0,84,0.00,,,-99.99,,2013-02-15 21:31:00,
2013-02-15 14:42:00,19.0,15.0,-100.00,WSW,239,25.0,32.0,85,0.00,,,-99.99,,2013-02-15 21:42:00,
2013-02-15 14:51:00,19.0,15.0,-100.00,WSW,240,23.0,32.0,82,0.00,,,-99.99,,2013-02-15 21:51:00,
2013-02-15 15:02:00,19.0,16.0,-100.00,WSW,239,27.0,34.0,87,0.00,,,-99.99,,2013-02-15 22:02:00,
2013-02-15 15:11:00,19.0,15.0,-100.00,SW,234,27.0,35.0,84,0.00,,,-99.99,,2013-02-15 22:11:00,
2013-02-15 15:21:00,19.0,15.0,-100.00,WSW,237,27.0,32.0,84,0.01,,,-99.99,,2013-02-15 22:21:00,
2013-02-15 15:31:00,19.0,16.0,-100.00,WSW,237,28.0,35.0,89,0.01,,,-99.99,,2013-02-15 22:31:00,
2013-02-15 15:41:00,19.0,16.0,-100.00,SW,232,29.0,37.0,86,0.00,,,-99.99,,2013-02-15 22:41:00,
2013-02-15 15:51:00,19.0,14.0,-100.00,SW,230,28.0,36.0,80,0.00,,,-99.99,,2013-02-15 22:51:00,
2013-02-15 16:02:00,20.0,13.0,-100.00,SW,232,28.0,37.0,75,0.00,,,-99.99,,2013-02-15 23:02:00,
2013-02-15 16:11:00,19.0,12.0,-100.00,SW,234,27.0,37.0,74,0.00,,,-99.99,,2013-02-15 23:11:00,
2013-02-15 16:21:00,19.0,13.0,-100.00,SW,224,31.0,42.0,78,0.00,,,-99.99,,2013-02-15 23:21:00,
2013-02-15 16:31:00,19.0,13.0,-100.00,SW,227,29.0,39.0,77,0.00,,,-99.99,,2013-02-15 23:31:00,
2013-02-15 16:42:00,18.0,13.0,-100.00,SW,219,32.0,45.0,80,0.00,,,-99.99,,2013-02-15 23:42:00,
2013-02-15 16:52:00,18.0,14.0,-100.00,SW,220,31.0,42.0,83,0.00,,,-99.99,,2013-02-15 23:52:00,
2013-02-15 17:02:00,19.0,13.0,-100.00,SW,220,32.0,43.0,79,0.00,,,-99.99,,2013-02-16 00:02:00,
2013-02-15 17:11:00,20.0,12.0,-100.00,SW,227,30.0,37.0,72,0.00,,,-99.99,,2013-02-16 00:11:00,
2013-02-15 17:21:00,19.0,14.0,-100.00,SW,220,31.0,37.0,80,0.00,,,-99.99,,2013-02-16 00:21:00,
2013-02-15 17:32:00,20.0,13.0,-100.00,SW,222,28.0,37.0,77,0.00,,,-99.99,,2013-02-16 00:32:00,
2013-02-15 17:41:00,19.0,14.0,-100.00,SW,219,29.0,35.0,79,0.00,,,-99.99,,2013-02-16 00:41:00,
2013-02-15 17:51:00,20.0,14.0,-100.00,SW,224,29.0,37.0,77,0.00,,,-99.99,,2013-02-16 00:51:00,
2013-02-15 18:02:00,21.0,13.0,-100.00,SW,226,29.0,39.0,72,0.00,,,-99.99,,2013-02-16 01:02:00,
2013-02-15 18:11:00,21.0,14.0,-100.00,SW,222,32.0,43.0,75,0.00,,,-99.99,,2013-02-16 01:11:00,
2013-02-15 18:21:00,20.0,15.0,-100.00,SW,222,31.0,43.0,83,0.00,,,-99.99,,2013-02-16 01:21:00,
2013-02-15 18:32:00,21.0,15.0,-100.00,SW,216,34.0,40.0,80,0.00,,,-99.99,,2013-02-16 01:32:00,
2013-02-15 18:41:00,20.0,15.0,-100.00,SW,222,29.0,37.0,80,0.00,,,-99.99,,2013-02-16 01:41:00,
2013-02-15 18:51:00,21.0,16.0,-100.00,SW,216,34.0,46.0,81,0.00,,,-99.99,,2013-02-16 01:51:00,
2013-02-15 19:01:00,22.0,15.0,-100.00,SW,215,34.0,42.0,74,0.00,,,-99.99,,2013-02-16 02:01:00,
2013-02-15 19:11:00,22.0,15.0,-100.00,SW,222,31.0,45.0,75,0.00,,,-99.99,,2013-02-16 02:11:00,
2013-02-15 19:21:00,21.0,16.0,-100.00,SW,215,33.0,43.0,79,0.00,,,-99.99,,2013-02-16 02:21:00,
2013-02-15 19:31:00,21.0,16.0,-100.00,SSW,213,33.0,43.0,80,0.00,,,-99.99,,2013-02-16 02:31:00,
2013-02-15 19:42:00,22.0,16.0,-100.00,SW,216,31.0,40.0,78,0.00,,,-99.99,,2013-02-16 02:42:00,
2013-02-15 19:52:00,22.0,16.0,-100.00,SW,222,29.0,35.0,77,0.00,,,-99.99,,2013-02-16 02:52:00,
2013-02-15 20:01:00,22.0,16.0,-100.00,SW,223,30.0,39.0,79,0.00,,,-99.99,,2013-02-16 03:01:00,
2013-02-15 20:11:00,22.0,16.0,-100.00,SW,223,30.0,38.0,77,0.00,,,-99.99,,2013-02-16 03:11:00,
2013-02-15 20:21:00,22.0,17.0,-100.00,SW,222,32.0,40.0,77,0.00,,,-99.99,,2013-02-16 03:21:00,
2013-02-15 20:32:00,23.0,16.0,-100.00,SW,226,32.0,41.0,74,0.00,,,-99.99,,2013-02-16 03:32:00,
2013-02-15 20:41:00,23.0,17.0,-100.00,SW,226,34.0,43.0,77,0.00,,,-99.99,,2013-02-16 03:41:00,
2013-02-15 20:52:00,23.0,16.0,-100.00,SW,226,32.0,43.0,74,0.00,,,-99.99,,2013-02-16 03:52:00,
2013-02-15 21:01:00,23.0,16.0,-100.00,SW,227,34.0,43.0,73,0.00,,,-99.99,,2013-02-16 04:01:00,
2013-02-15 21:11:00,23.0,16.0,-100.00,SW,227,34.0,41.0,73,0.00,,,-99.99,,2013-02-16 04:11:00,
2013-02-15 21:21:00,23.0,15.0,-100.00,SW,230,32.0,38.0,71,0.00,,,-99.99,,2013-02-16 04:21:00,
2013-02-15 21:32:00,23.0,16.0,-100.00,SW,227,30.0,39.0,74,0.00,,,-99.99,,2013-02-16 04:32:00,
2013-02-15 21:41:00,23.0,16.0,-100.00,SW,229,28.0,38.0,74,0.00,,,-99.99,,2013-02-16 04:41:00,
2013-02-15 21:51:00,23.0,16.0,-100.00,SW,229,27.0,35.0,75,0.00,,,-99.99,,2013-02-16 04:51:00,
2013-02-15 22:01:00,22.0,16.0,-100.00,SW,223,28.0,40.0,76,0.00,,,-99.99,,2013-02-16 05:01:00,
2013-02-15 22:12:00,22.0,16.0,-100.00,SW,219,28.0,39.0,77,0.00,,,-99.99,,2013-02-16 05:12:00,
2013-02-15 22:21:00,22.0,16.0,-100.00,SW,224,28.0,39.0,77,0.00,,,-99.99,,2013-02-16 05:21:00,
2013-02-15 22:32:00,22.0,16.0,-100.00,SW,220,28.0,39.0,78,0.00,,,-99.99,,2013-02-16 05:32:00,
2013-02-15 22:42:00,22.0,16.0,-100.00,SW,224,27.0,32.0,77,0.00,,,-99.99,,2013-02-16 05:42:00,
2013-02-15 22:52:00,22.0,16.0,-100.00,SW,224,28.0,37.0,77,0.00,,,-99.99,,2013-02-16 05:52:00,
2013-02-15 23:02:00,22.0,16.0,-100.00,SW,220,29.0,38.0,77,0.00,,,-99.99,,2013-02-16 06:02:00,
2013-02-15 23:11:00,22.0,16.0,-100.00,SSW,212,29.0,38.0,77,0.00,,,-99.99,,2013-02-16 06:11:00,
2013-02-15 23:21:00,22.0,16.0,-100.00,SSW,208,32.0,39.0,77,0.00,,,-99.99,,2013-02-16 06:21:00,
2013-02-15 23:32:00,22.0,16.0,-100.00,SSW,203,34.0,43.0,75,0.00,,,-99.99,,2013-02-16 06:32:00,
2013-02-15 23:42:00,22.0,16.0,-100.00,SSW,203,32.0,41.0,77,0.00,,,-99.99,,2013-02-16 06:42:00,
2013-02-15 23:51:00,22.0,16.0,-100.00,SSW,203,31.0,40.0,75,0.00,,,-99.99,,2013-02-16 06:51:00,